• Processing (Info)

  • MPEC 2013-M28 : 2013 MZ5

    The following Minor Planet Electronic Circular may be linked-to from your own Web pages, but must not otherwise be redistributed electronically.

    A form allowing access to any MPEC is at the bottom of this page.


    Read MPEC 2013-M27 Read MPEC 2013-M29


    M.P.E.C. 2013-M28                                Issued 2013 June 21, 13:08 UT
    
         The Minor Planet Electronic Circulars contain information on unusual
             minor planets and routine data on comets.  They are published
       on behalf of Commission 20 of the International Astronomical Union by the
              Minor Planet Center, Smithsonian Astrophysical Observatory,
                              Cambridge, MA 02138, U.S.A.
    
                 Prepared using the Tamkin Foundation Computer Network
    
                                  MPC@CFA.HARVARD.EDU
                URL http://www.minorplanetcenter.net/    ISSN 1523-6714
    
                                       2013 MZ5
    
    Observations:
         K13M05Z* C2013 06 18.50804 19 59 51.999-26 33 32.19         20.6 wLEM028F51
         K13M05Z  C2013 06 18.52113 19 59 51.644-26 34 10.91         21.0 wLEM028F51
         K13M05Z  C2013 06 18.53428 19 59 51.278-26 34 49.98         20.7 wLEM028F51
         K13M05Z  C2013 06 18.54739 19 59 50.905-26 35 28.75         20.8 wLEM028F51
         K13M05Z KC2013 06 20.04102119 59 16.28 -27 50 21.4          20.8 VqEM028K91
         K13M05Z KC2013 06 20.04619419 59 16.10 -27 50 37.0          20.9 VqEM028K91
         K13M05Z KC2013 06 20.05137819 59 15.94 -27 50 53.3          20.8 VqEM028K91
         K13M05Z |C2013 06 20.18423 19 59 13.23 -27 57 40.3          20.9 VuEM028807
         K13M05Z |C2013 06 20.19116 19 59 13.00 -27 58 01.9          20.8 VuEM028807
         K13M05Z |C2013 06 20.19790 19 59 12.81 -27 58 22.9          20.9 VuEM028807
         K13M05Z |C2013 06 21.34007 19 58 39.03 -28 57 40.2          20.7 VuEM028807
         K13M05Z |C2013 06 21.34311 19 58 38.91 -28 57 49.7          20.8 VuEM028807
         K13M05Z |C2013 06 21.34617 19 58 38.78 -28 57 59.2          20.7 VuEM028807
         K13M05Z |C2013 06 21.34924 19 58 38.69 -28 58 08.8          20.5 VuEM028807
         K13M05Z |C2013 06 21.35230 19 58 38.57 -28 58 18.4          20.7 VuEM028807
    
    Observer details:
    807 Cerro Tololo.  Observers T. Linder, R. Holmes.  0.41-m f/11
        Ritchey-Chretien + CCD.
    F51 Pan-STARRS 1, Haleakala.  Observers N. Primak, A. Schultz, S. Watters,
        T. Goggia, K. Chambers.  Measurer PS1 Science Consortium.  1.8-m
        Ritchey-Chretien + CCD.
    K91 Sutherland-LCOGT A.  Observer T. Lister.  1.0-m f/8 Ritchey-Chretien + CCD.
    
    Orbital elements:
    2013 MZ5                                                 Earth MOID = 0.4571 AU
    Epoch 2013 Apr. 18.0 TT = JDT 2456400.5                 MPC
    M 258.30816              (2000.0)            P               Q
    n   0.51169264     Peri.  274.45221     +0.86548523     -0.12862799
    a   1.5480914      Node    93.50033     +0.31228386     +0.89422701
    e   0.1749874      Incl.   29.01532     -0.39168113     +0.42873405
    P   1.93           H   20.2           G   0.15           U   7
    Residuals in seconds of arc
    130618 F51  0.0   0.1-    130620 K91  0.1-  0.1+    130621 807  0.1+  0.1-
    130618 F51  0.1+  0.1+    130620 K91  0.1+  0.3-    130621 807  0.0   0.1-
    130618 F51  0.1+  0.0     130620 807  0.1-  0.2+    130621 807  0.2-  0.0
    130618 F51  0.1-  0.0     130620 807  0.1-  0.1+    130621 807  0.1+  0.0
    130620 K91  0.1+  0.1-    130620 807  0.2+  0.0     130621 807  0.1+  0.0
    
    Ephemeris:
    2013 MZ5                 a,e,i = 1.55, 0.17, 29                  q = 1.2772
    Date    TT    R. A. (2000) Decl.     Delta      r     Elong.  Phase     V
    2013 05 22    19 51 22.9 -11 06 09   0.7705  1.5684   122.6    32.9    22.0
    ...
    2013 06 06    19 59 56.1 -17 48 43   0.6261  1.5322   136.8    27.0    21.3
    ...
    2013 06 14    20 00 49.0 -23 02 35   0.5629  1.5126   145.2    22.5    20.9
    ...
    2013 06 20    19 59 17.4 -27 48 14   0.5241  1.4978   151.5    18.9    20.6
    2013 06 21    19 58 49.7 -28 39 51   0.5185  1.4954   152.5    18.3    20.6
    2013 06 22    19 58 18.2 -29 32 31   0.5131  1.4929   153.4    17.7    20.5
    ...
    2013 06 28    19 53 43.0 -35 07 56   0.4862  1.4782   157.8    15.0    20.3
    ...
    2013 07 06    19 43 16.6 -43 05 31   0.4660  1.4587   157.8    15.3    20.2
    ...
    2013 07 21    19 09 32.2 -56 44 52   0.4753  1.4230   142.5    25.8    20.5
    
    A. U. Tomatic                (C) Copyright 2013 MPC           M.P.E.C. 2013-M28
    

    Read MPEC 2013-M27 Read MPEC 2013-M29


    MPEC number:

    Enter an MPEC number in one of the following forms:

    • 1997-B01 (the full form)
    • J97B01 (the packed version of the full form)
    • B01 (the abbreviated form)